Regional Weather Roundup
Issued by NWS Green Bay, WI

Home | Current Version | Previous Version | Graphics & Text | Print | Product List | Glossary Off
Versions: 1 2 3 4 5 6 7 8 9 10 11 12 13 14 15 16 17 18 19 20 21 22 23 24 25 26 27 28 29 30 31 32 33 34 35 36 37 38 39 40 41 42 43 44 45 46 47 48 49 50

152
ASUS43 KGRB 251600
RWRGRB

NORTH-CENTRAL AND NORTHEAST WISCONSIN REGIONAL WEATHER ROUNDUP
NATIONAL WEATHER SERVICE GREEN BAY WI
1100 AM CDT SAT MAR 25 2017

WIZ005-009-010>012-018-019-251700-
NORTH CENTRAL WISCONSIN

CITY           SKY/WX    TMP DP  RH WIND       PRES   REMARKS
IRONWOOD       CLOUDY    34  29  82 E12       30.28S
MANITOWISH WTR NOT AVBL
ARBOR VITAE    NOT AVBL
EAGLE RIVER    NOT AVBL
LAND O LAKES   NOT AVBL
RHINELANDER    CLOUDY    35  31  85 E13       30.23F
PHILLIPS       NOT AVBL
ANTIGO         NOT AVBL
TOMAHAWK       NOT AVBL
MERRILL        NOT AVBL
$$

WIZ013-073-251700-
NORTHEAST WISCONSIN

CITY           SKY/WX    TMP DP  RH WIND       PRES   REMARKS
IRON MOUNTAIN  CLOUDY    36  29  75 SE9       30.27F
MARINETTE        N/A    N/A N/A N/A MISG        N/A
$$

WIZ017-030-035>037-045-251700-
CENTRAL WISCONSIN

CITY           SKY/WX    TMP DP  RH WIND       PRES   REMARKS
MEDFORD        NOT AVBL
WAUSAU         CLOUDY    36  32  85 E15G23    30.20S
MOSINEE        NOT AVBL
MARSHFIELD     CLOUDY    36  31  82 E18G25    30.16F
WISC RAPIDS    CLOUDY    37  33  85 E14G26    30.18F
STEVENS POINT  NOT AVBL
WAUPACA        NOT AVBL
SHAWANO        NOT AVBL
CLINTONVILLE   NOT AVBL
WAUTOMA        CLOUDY    36  34  92 E15G28    30.18S
$$

WIZ038-039-048-051-251700-
FOX VALLEY

CITY           SKY/WX    TMP DP  RH WIND       PRES   REMARKS
NWS GREEN BAY  CLOUDY    38  36  92 NE18      30.23F
APPLETON       CLOUDY    36  36 100 NE14G22   30.18F
OSHKOSH        CLOUDY    37  34  89 NE16      30.17S
FOND DU LAC    CLOUDY    38  33  82 NE15      30.17S
$$

WIZ022-050-052-251700-
EAST CENTRAL WISCONSIN

CITY           SKY/WX    TMP DP  RH WIND       PRES   REMARKS
EPHRAIM        NOT AVBL
WASHINGTON ISL NOT AVBL
STURGEON BAY   CLOUDY    37  32  82 NE16G25   30.26F
MANITOWOC      NOT AVBL
SHEBOYGAN      CLOUDY    37  34  89 NE18      30.18S
$$

LMZ563-521-522-541>543-251700-
LAKESHORE

STATION/POSITION TIME  TEMP    WIND        PRES    VSBY  WAVE
                       AIR SEA DIR/SP/G                  HT/PER
                 (UTC) (F)     (DEG/KT/KT) (MB)    (MI)  (FT/S)
SHEBOYGAN LKSHOR 1500   37      30/ 18/ 20 1022.7F
KEWAUNEE LKSHORE 1530   37      50/ 14/ 20 1023.2F
NORTHPORT PIER   1540   34      70/ 15/ 19 1025.7F
SISTER BAY LKSHO 1506   38      80/ 10/ 17   N/A
CHAMBERS ISLAND  1540   35      50/ 14/ 19 1025.4R
MENOMINEE LKSHOR 1530   34      40/ 15/ 18 1024.7R
$$




USA.gov is the U.S. government's official web portal to all federal, state and local government web resources and services.